Wind_Speed
44 50 42 39 35 35 30 26 23 21 17 12 8 4 3 3 3 5 7 7 9 6 11 5 10 12 11 6 3 7 9 1 3 3 2 3 4 3 2 6 7 8 7 4 3 4 7 8 5 6 5 4 5 8
50 45 45 39 35 35 32 27 24 21 19 14 10 6 2 2 4 4 6 5 7 8 11 26 20 16 19 22 16 4 4 6 3 2 4 4 4 2 2 3 2 4 6 5 7 6 3 13 6 11 6 7 5 5
51 52 47 37 36 36 31 27 26 23 17 12 12 8 4 4 5 5 7 6 10 7 18 11 12 14 13 13 14 7 5 7 3 2 3 2 5 4 2 2 4 3 4 3 3 5 8 14 13 12 13 7 4 3
48 53 43 40 35 35 30 26 23 20 16 11 10 8 6 3 4 8 8 11 8 7 4 8 16 15 15 12 14 18 17 5 8 0 2 2 2 1 3 4 2 5 3 6 3 6 5 9 10 9 11 9 6 2
48 51 44 42 37 34 30 26 24 19 15 12 10 9 7 6 6 9 11 15 13 7 4 14 22 0 9 2 6 12 17 19 13 4 3 3 4 3 3 4 5 7 6 5 6 11 8 11 9 8 12 13 7 6
54 50 42 36 38 32 28 26 23 20 17 14 12 13 9 10 9 9 5 6 13 11 4 4 7 4 2 2 5 8 13 15 10 6 5 6 15 6 3 3 7 7 5 7 5 8 12 6 5 5 9 12 10 9
56 50 40 40 36 32 29 27 20 17 16 12 11 14 12 13 13 12 4 2 8 5 3 6 9 4 8 3 4 7 9 10 11 6 7 7 5 11 3 4 7 9 13 14 6 6 6 9 6 6 4 9 11 9
48 45 44 37 34 32 27 22 19 16 11 10 11 7 9 11 9 13 13 15 4 3 1 2 4 8 3 3 3 5 5 9 8 6 4 5 7 9 5 9 23 27 25 19 10 12 10 6 10 7 7 8 8 6
49 44 42 37 33 28 24 20 18 13 10 11 10 8 9 7 5 6 10 4 3 2 2 2 1 4 7 4 5 2 4 3 5 4 5 5 3 6 13 20 22 23 11 8 5 7 9 6 8 9 8 7 7 6
46 41 40 35 30 26 23 19 15 8 10 15 17 5 5 6 6 5 5 5 2 2 3 4 4 3 4 3 3 2 4 2 2 4 5 3 5 22 29 19 18 15 13 13 11 11 11 10 9 9 7 6 5 5
43 39 35 30 27 24 20 15 12 16 21 15 7 5 8 11 5 2 3 2 3 2 5 6 9 4 6 3 3 4 2 3 3 3 4 3 3 2 9 18 25 21 14 8 7 5 5 7 8 9 8 7 7 7
38 34 31 28 24 21 17 15 18 20 13 9 10 16 11 4 2 2 2 3 3 4 5 5 6 8 6 6 4 4 3 2 4 9 2 3 3 11 4 1 3 6 6 4 4 4 3 5 6 8 7 6 6 7
33 30 28 24 20 20 19 17 17 14 19 15 5 5 6 4 3 5 6 3 3 5 6 5 2 4 4 7 6 3 4 2 8 3 2 2 9 13 6 1 2 3 3 3 3 3 4 4 4 4 4 5 6 7
29 26 23 23 21 18 16 18 19 20 6 3 5 5 4 4 5 5 4 4 4 2 2 6 5 4 4 3 3 4 2 2 3 2 2 2 15 12 4 1 1 2 2 2 2 3 3 3 2 3 2 2 1 1
26 21 19 19 19 18 19 17 17 17 3 3 5 5 5 6 5 2 8 4 3 2 6 6 6 6 3 3 3 3 3 2 2 2 2 12 17 9 4 2 1 2 5 7 8 9 9 8 7 4 1 2 4 6
17 16 15 15 13 14 20 21 20 11 2 4 4 2 5 1 3 7 11 7 5 3 4 3 2 3 3 2 2 3 1 2 1 2 12 14 11 7 4 2 3 7 9 9 7 5 3 1 0 2 3 4 6 6
13 10 11 10 17 22 21 19 13 5 5 4 4 9 8 4 6 5 10 9 8 3 0 2 3 3 2 2 2 2 2 2 8 10 10 9 9 5 2 1 5 6 2 2 2 1 1 2 3 4 5 6 6 6
11 12 13 22 26 26 30 18 7 6 7 7 5 10 12 9 5 7 9 10 7 5 2 2 4 3 3 2 3 2 3 4 3 6 9 10 7 4 4 3 6 6 4 4 5 3 2 3 4 6 7 7 7 7
12 10 15 30 33 28 9 10 7 5 8 5 9 7 8 6 13 10 10 9 9 7 2 2 4 3 4 5 6 5 6 3 3 5 6 7 9 6 4 4 7 9 8 8 7 7 6 7 7 8 8 8 7 8
12 15 19 30 35 12 7 6 9 5 6 6 6 6 5 3 6 9 11 11 9 5 5 4 5 6 6 5 7 8 5 3 5 7 7 7 8 9 8 7 7 10 11 11 11 12 12 12 11 11 11 10 9 9
19 17 31 43 29 7 6 7 6 4 4 5 6 7 3 5 6 6 6 10 9 6 6 16 20 18 14 10 9 7 10 8 8 10 13 16 14 14 13 11 10 11 14 14 15 15 16 15 12 14 12 11 10 10
24 36 32 28 5 5 4 8 5 9 5 4 5 5 3 3 5 7 7 10 7 11 13 17 21 19 18 17 13 10 9 11 14 17 18 19 20 18 17 15 15 15 15 15 15 16 16 14 16 16 14 12 12 11
33 24 11 6 4 3 4 14 3 5 3 6 5 3 2 3 3 5 4 7 9 14 17 19 19 19 18 17 15 11 11 15 16 14 13 13 13 13 15 15 16 17 18 16 16 17 16 13 16 16 15 14 13 12
15 6 4 4 3 4 7 3 4 4 5 3 3 2 2 3 2 2 3 5 10 8 6 6 8 11 13 13 11 8 4 2 1 4 7 8 9 8 10 10 11 13 14 15 16 16 15 13 14 14 14 14 14 13
5 1 3 3 4 5 3 2 1 2 3 3 3 2 1 3 1 2 3 5 6 5 6 7 7 5 3 5 6 5 2 4 7 8 10 11 12 12 10 11 11 10 10 12 11 11 11 12 13 14 14 15 14 14
4 1 2 4 2 4 4 4 5 5 3 2 3 3 3 2 1 5 3 2 7 8 7 8 5 5 8 7 5 3 2 4 8 11 13 16 16 15 16 16 14 9 12 11 10 10 10 12 13 14 14 14 14 16
3 3 3 3 5 7 4 4 4 3 4 5 3 3 2 2 5 4 2 2 5 9 9 9 9 11 13 12 13 12 12 14 16 19 22 22 21 21 19 20 18 16 15 15 15 14 13 13 14 15 15 16 17 18
3 7 6 9 4 4 4 2 4 6 4 6 10 4 6 7 4 1 3 5 5 3 3 6 10 13 15 17 19 20 21 24 27 30 32 32 29 26 21 19 20 18 17 17 17 17 18 19 19 19 19 19 19 21
3 9 9 2 3 3 7 5 5 5 5 11 4 3 4 4 3 2 5 9 12 14 15 16 16 18 19 22 25 28 30 32 34 35 35 35 31 23 20 19 18 18 17 15 15 15 16 17 18 19 19 20 20 20
6 10 4 4 4 4 3 5 2 5 8 6 3 4 5 8 7 10 15 17 14 12 10 9 9 11 11 14 16 16 16 19 20 22 24 24 22 18 17 17 17 18 19 18 17 16 16 16 17 16 16 16 16 16
10 6 3 2 1 2 3 5 4 4 5 6 11 11 11 11 15 11 6 7 2 2 7 11 15 17 19 21 24 27 26 22 21 20 20 20 19 18 19 21 22 21 21 20 19 18 17 17 17 17 16 15 14 14
4 2 4 3 2 4 3 1 2 2 3 4 4 5 4 5 5 4 4 4 4 11 15 19 23 25 26 28 28 27 29 28 25 25 26 25 24 22 22 22 23 23 21 20 19 19 18 16 15 14 14 13 13 12
4 3 3 4 3 2 1 2 2 3 3 3 2 3 3 3 5 4 4 5 8 15 23 26 27 28 27 27 27 25 25 26 24 23 23 23 24 24 25 24 23 22 21 20 18 17 15 13 12 11 10 10 9 7
Wind_Direction
206 201 199 195 198 199 204 208 211 214 213 204 204 231 266 312 1 26 29 15 8 330 293 249 292 269 276 238 247 327 334 69 297 280 266 195 232 236 183 170 169 171 173 182 165 219 265 183 101 177 223 324 307 326
202 208 195 192 195 202 204 207 209 212 216 201 198 215 226 304 360 13 4 1 349 324 285 304 296 289 271 266 269 241 258 336 312 337 24 331 318 20 277 214 55 191 183 179 179 208 234 194 216 222 288 289 311 338
203 205 188 190 200 200 202 208 212 213 204 198 199 213 233 280 318 337 324 334 345 272 299 292 317 315 296 292 252 226 232 236 247 301 306 254 277 332 307 353 304 267 171 172 107 243 229 240 250 253 254 257 287 343
205 201 182 190 196 195 199 201 202 200 196 202 211 219 239 299 306 298 321 316 311 303 287 278 322 317 304 272 254 236 229 208 250 184 267 292 280 35 296 313 281 252 170 169 261 279 285 255 250 246 239 230 238 240
203 182 183 190 190 197 197 189 191 193 198 214 220 232 257 263 264 286 273 327 278 295 278 293 315 238 327 291 187 233 237 240 243 245 222 224 241 287 233 259 249 206 208 168 216 213 201 254 269 259 232 221 218 198
189 180 182 191 187 190 185 181 184 195 201 207 212 229 241 239 239 256 318 295 255 258 288 304 305 315 26 343 229 235 236 228 205 203 214 234 229 226 261 256 251 283 269 297 294 279 216 242 227 250 232 213 206 200
185 177 179 182 181 183 177 181 183 193 204 213 236 243 231 227 234 216 232 236 312 283 265 299 319 282 311 291 229 226 215 212 211 218 221 228 239 207 259 234 272 265 298 331 287 278 232 230 234 227 215 200 194 200
168 173 171 177 182 180 177 177 186 196 198 222 232 218 203 203 214 228 251 281 317 265 242 317 279 315 337 279 254 220 194 207 214 235 207 203 217 210 253 246 260 265 281 297 287 238 255 275 227 219 201 197 201 209
162 167 169 174 173 171 172 178 184 186 197 225 183 194 151 183 207 242 254 218 226 246 164 209 258 277 332 277 285 257 213 219 223 224 205 207 201 219 224 233 253 264 261 284 275 259 244 237 232 214 208 212 227 237
153 158 165 163 166 167 172 175 178 170 197 164 151 148 126 149 166 125 120 188 236 209 213 244 233 268 286 301 285 260 213 232 244 225 171 232 253 248 253 257 269 272 287 259 235 240 237 233 221 215 215 220 228 241
157 154 155 157 162 165 163 160 154 173 156 149 144 94 127 137 145 142 152 203 165 257 221 239 227 246 260 227 266 264 231 216 247 163 199 235 255 323 279 253 247 261 283 231 223 229 230 232 235 231 233 237 245 256
147 149 152 155 154 150 150 147 162 159 161 157 136 118 136 151 147 180 216 158 192 236 211 208 238 235 264 220 250 260 257 223 258 138 235 257 356 347 16 127 179 205 209 201 204 200 185 206 213 218 228 238 256 273
143 149 149 141 139 143 138 140 149 150 139 128 104 107 143 159 173 197 190 217 223 211 208 219 290 252 248 227 240 249 244 267 131 215 261 348 360 353 347 23 103 128 148 160 157 163 172 172 181 201 235 259 276 280
136 133 138 142 124 126 141 145 145 152 143 121 124 142 197 184 218 194 182 197 199 199 256 310 292 252 251 240 247 256 285 286 306 329 293 335 344 347 343 343 178 147 150 132 143 153 151 140 159 179 190 172 177 302
134 128 121 126 138 142 152 150 159 163 131 142 151 198 209 223 231 191 219 221 220 262 314 305 263 240 234 260 238 297 325 285 243 290 292 326 333 335 324 320 342 126 122 112 105 107 111 112 114 113 131 284 294 299
139 145 156 144 149 162 162 171 168 167 198 200 208 183 204 230 248 214 216 224 222 254 318 259 253 268 237 245 271 239 263 250 292 313 321 331 338 334 325 340 121 121 115 111 109 110 111 115 278 294 303 311 319 319
159 152 152 165 163 161 173 170 169 193 215 209 234 225 207 255 238 227 210 191 175 127 325 292 244 251 297 272 262 226 218 258 316 325 339 340 340 351 341 350 154 135 169 154 123 119 75 14 352 338 327 321 321 323
186 181 185 166 158 168 177 181 181 211 210 208 208 214 204 223 223 199 196 187 169 162 181 255 311 244 255 234 260 246 262 281 321 355 358 360 349 322 290 259 177 179 233 222 233 262 290 316 330 332 328 321 320 322
191 161 156 171 173 167 158 186 218 220 211 208 224 211 210 233 226 224 198 191 197 194 221 249 252 234 231 214 246 267 268 276 326 347 5 19 7 348 314 262 236 245 256 256 259 267 274 290 303 312 315 310 306 309
171 172 191 182 178 169 167 176 185 215 190 204 206 200 201 220 207 205 201 190 180 182 205 217 225 232 237 256 264 262 239 270 304 315 314 331 341 344 330 299 269 258 257 259 263 270 274 276 282 288 296 299 299 300
181 182 181 179 171 167 174 163 172 186 179 183 182 172 190 198 207 206 205 188 198 213 229 228 236 251 256 265 272 263 261 273 282 292 299 302 304 295 289 291 290 275 268 267 268 270 273 279 280 276 283 292 289 291
172 164 162 167 152 144 140 162 158 150 145 144 158 189 188 199 203 194 182 196 228 229 224 247 254 258 261 258 262 260 263 280 288 288 291 292 290 290 287 279 273 272 273 275 274 276 276 272 264 268 275 281 280 279
163 161 155 143 123 132 134 145 136 148 122 177 175 187 209 214 220 204 242 227 247 253 254 256 259 250 256 264 260 256 268 276 282 287 293 298 297 292 283 280 278 277 274 274 276 276 279 271 264 265 269 275 275 271
155 133 129 124 111 118 147 129 127 131 132 142 134 211 252 213 203 229 251 249 241 246 238 248 246 254 265 267 242 235 201 157 32 352 350 354 357 343 322 312 295 289 287 282 279 281 283 279 274 275 276 274 268 265
147 136 157 97 133 122 97 95 80 82 174 206 146 244 265 158 125 250 238 268 255 233 224 217 191 181 170 157 168 169 119 35 15 1 339 332 330 332 334 336 338 330 307 299 295 283 274 269 272 276 279 275 267 265
86 51 92 146 162 140 164 133 175 193 142 165 209 122 129 115 127 246 234 243 198 192 179 191 214 236 238 231 214 218 279 329 338 342 341 338 325 317 319 321 320 321 314 312 307 296 281 274 275 277 278 275 270 269
132 215 160 140 137 132 83 90 136 139 178 191 171 143 124 173 241 251 255 256 224 212 216 220 245 253 248 246 247 261 281 296 304 309 312 313 316 315 304 304 307 307 300 292 288 285 283 280 280 280 279 272 269 271
143 168 159 158 132 148 130 142 177 203 202 166 137 173 181 197 235 182 136 74 34 355 298 280 268 264 260 249 249 262 275 284 291 295 296 297 301 303 296 290 294 288 289 291 287 282 284 285 283 280 279 278 276 275
133 147 137 95 134 173 195 184 207 201 183 176 169 202 234 224 198 185 287 300 307 307 301 292 281 272 266 264 266 272 279 285 289 291 291 293 299 298 290 284 277 279 283 288 292 294 293 290 286 284 283 282 281 281
161 167 133 156 165 211 186 191 186 192 191 203 247 266 265 270 288 299 302 298 294 296 304 311 314 314 313 308 301 295 297 299 295 291 290 291 292 282 270 266 268 274 280 285 290 292 291 291 290 288 284 283 282 282
149 161 110 107 144 153 158 179 188 214 232 247 249 258 272 294 304 305 290 315 309 325 335 324 315 310 310 308 307 305 301 295 291 288 285 283 281 277 270 264 265 269 272 275 280 285 285 286 285 285 284 283 282 283
147 158 142 118 139 142 160 206 236 250 248 249 249 245 273 271 266 262 279 320 334 330 324 324 319 313 309 307 303 299 296 294 288 279 273 272 271 269 268 268 268 268 269 270 272 273 274 275 276 274 272 275 281 285
112 122 114 108 105 129 80 1 22 322 259 282 296 293 254 247 254 239 246 271 314 325 321 318 316 313 311 308 305 298 292 292 291 286 281 280 278 274 270 267 267 267 266 265 263 262 261 263 263 264 266 272 278 277
Height
1412 1421 1429 1438 1446 1456 1463 1469 1473 1478 1481 1483 1485 1487 1487 1487 1489 1491 1493 1492 1492 1492 1490 1488 1487 1488 1487 1485 1484 1482 1479 1472 1471 1465 1454 1452 1452 1450 1448 1446 1453 1454 1463 1461 1467 1464 1463 1442 1447 1450 1442 1437 1436 1435
1403 1413 1422 1432 1441 1450 1458 1464 1469 1474 1477 1481 1483 1485 1485 1485 1486 1489 1491 1490 1491 1493 1488 1485 1480 1480 1480 1481 1483 1482 1482 1482 1478 1477 1475 1469 1455 1450 1448 1447 1446 1450 1446 1452 1453 1449 1438 1438 1437 1437 1437 1437 1436 1434
1394 1405 1414 1428 1436 1445 1453 1459 1465 1470 1474 1478 1481 1483 1483 1483 1484 1488 1488 1488 1488 1488 1483 1479 1475 1477 1476 1476 1477 1480 1479 1479 1481 1480 1478 1475 1470 1464 1448 1447 1445 1440 1438 1442 1443 1435 1435 1435 1435 1435 1435 1435 1435 1434
1387 1398 1409 1423 1432 1441 1449 1455 1461 1466 1471 1475 1478 1480 1482 1483 1483 1485 1486 1487 1487 1486 1483 1474 1471 1470 1470 1469 1470 1473 1476 1476 1477 1478 1479 1475 1473 1467 1460 1455 1453 1444 1438 1438 1440 1433 1432 1431 1431 1431 1431 1433 1433 1434
1380 1393 1405 1417 1428 1437 1445 1452 1458 1464 1469 1473 1476 1479 1480 1482 1483 1483 1482 1483 1483 1487 1483 1473 1467 1466 1466 1465 1467 1468 1470 1471 1471 1475 1475 1474 1470 1469 1458 1454 1445 1435 1433 1434 1433 1425 1426 1426 1427 1428 1428 1429 1431 1432
1377 1391 1403 1415 1423 1433 1442 1449 1455 1462 1466 1469 1472 1476 1478 1480 1481 1483 1481 1481 1481 1482 1481 1476 1468 1464 1465 1464 1464 1464 1465 1468 1468 1469 1468 1466 1463 1465 1459 1447 1428 1427 1427 1427 1425 1424 1423 1424 1425 1425 1425 1427 1429 1431
1374 1388 1402 1414 1422 1430 1439 1445 1452 1458 1462 1465 1468 1471 1472 1474 1477 1480 1481 1481 1481 1482 1480 1476 1469 1465 1463 1463 1461 1461 1461 1462 1462 1463 1459 1460 1458 1456 1451 1438 1423 1422 1424 1423 1421 1423 1423 1423 1424 1425 1425 1426 1427 1429
1372 1386 1399 1411 1421 1429 1436 1443 1449 1454 1458 1463 1466 1469 1470 1471 1474 1476 1477 1480 1479 1480 1479 1480 1473 1467 1463 1461 1461 1460 1458 1461 1460 1458 1453 1453 1453 1453 1445 1430 1425 1419 1421 1419 1419 1421 1422 1422 1423 1424 1425 1426 1427 1428
1372 1385 1398 1411 1420 1427 1434 1441 1447 1450 1454 1459 1463 1466 1470 1472 1474 1475 1477 1477 1478 1483 1480 1480 1482 1478 1464 1461 1458 1457 1457 1455 1453 1451 1448 1448 1442 1435 1422 1417 1419 1420 1419 1417 1417 1418 1420 1421 1422 1423 1424 1425 1426 1427
1372 1386 1399 1409 1419 1426 1432 1439 1444 1445 1453 1458 1462 1465 1467 1471 1472 1475 1476 1478 1478 1478 1478 1477 1474 1472 1468 1461 1458 1456 1454 1453 1451 1443 1443 1439 1429 1418 1415 1417 1417 1417 1416 1414 1414 1416 1417 1419 1420 1422 1423 1424 1425 1426
1376 1390 1400 1409 1417 1425 1431 1436 1438 1447 1452 1456 1459 1464 1469 1472 1474 1475 1476 1476 1477 1477 1475 1471 1469 1468 1463 1462 1459 1454 1449 1445 1440 1436 1439 1430 1419 1412 1410 1411 1414 1416 1415 1413 1413 1413 1414 1417 1419 1421 1423 1423 1423 1424
1382 1392 1401 1409 1417 1422 1427 1432 1439 1446 1449 1454 1455 1462 1470 1473 1474 1476 1475 1475 1475 1473 1467 1466 1463 1463 1460 1458 1457 1452 1444 1439 1431 1435 1435 1419 1416 1414 1413 1412 1412 1412 1413 1412 1413 1413 1414 1416 1418 1420 1421 1422 1422 1422
1385 1396 1404 1409 1415 1422 1428 1432 1441 1445 1449 1453 1456 1462 1466 1471 1473 1472 1472 1469 1468 1463 1462 1461 1460 1459 1455 1454 1452 1446 1438 1431 1433 1430 1420 1419 1420 1416 1414 1414 1414 1413 1413 1414 1414 1414 1415 1417 1418 1419 1420 1421 1421 1421
1391 1397 1405 1411 1415 1421 1429 1436 1440 1444 1449 1450 1455 1464 1463 1463 1460 1461 1462 1461 1459 1460 1460 1459 1458 1457 1453 1451 1445 1438 1431 1430 1431 1431 1423 1422 1421 1419 1416 1415 1414 1414 1414 1414 1414 1415 1416 1417 1418 1419 1420 1420 1420 1420
1395 1400 1405 1412 1419 1425 1431 1437 1440 1445 1446 1450 1455 1458 1456 1453 1452 1453 1455 1457 1457 1457 1458 1457 1455 1454 1448 1445 1441 1437 1434 1435 1429 1426 1426 1423 1420 1418 1417 1416 1415 1414 1415 1415 1416 1416 1417 1418 1419 1420 1421 1421 1421 1420
1398 1404 1411 1416 1421 1425 1431 1437 1441 1445 1449 1450 1450 1450 1450 1452 1449 1451 1452 1453 1455 1455 1454 1453 1452 1448 1443 1441 1439 1437 1434 1433 1429 1428 1426 1423 1420 1418 1417 1416 1415 1417 1417 1418 1419 1420 1421 1421 1421 1421 1421 1421 1420 1419
1400 1403 1410 1415 1420 1427 1432 1437 1442 1446 1447 1446 1445 1445 1447 1447 1445 1445 1447 1449 1450 1452 1453 1453 1450 1445 1442 1441 1440 1436 1432 1430 1428 1427 1425 1422 1420 1419 1418 1417 1418 1419 1420 1421 1421 1422 1422 1422 1421 1421 1420 1420 1419 1418
1398 1403 1408 1414 1420 1427 1431 1437 1442 1442 1442 1441 1442 1440 1442 1443 1443 1445 1446 1446 1447 1449 1452 1453 1450 1445 1441 1443 1436 1430 1429 1428 1427 1426 1425 1423 1421 1420 1419 1419 1419 1421 1421 1422 1422 1422 1422 1422 1421 1420 1419 1418 1417 1417
1397 1403 1408 1413 1417 1425 1431 1437 1438 1436 1436 1438 1437 1437 1438 1439 1440 1441 1442 1442 1443 1447 1449 1449 1448 1441 1435 1430 1430 1428 1428 1427 1427 1426 1424 1423 1421 1421 1420 1419 1420 1421 1421 1421 1421 1421 1421 1420 1420 1419 1418 1417 1416 1415
1399 1404 1408 1412 1420 1424 1428 1430 1433 1433 1433 1433 1434 1435 1436 1437 1437 1438 1438 1439 1441 1444 1444 1442 1435 1432 1429 1427 1427 1426 1426 1426 1426 1425 1424 1423 1421 1421 1420 1419 1418 1418 1418 1418 1418 1418 1418 1418 1418 1417 1416 1415 1414 1413
1398 1402 1407 1408 1415 1420 1422 1423 1427 1429 1428 1430 1429 1432 1434 1435 1436 1435 1435 1436 1439 1435 1431 1424 1424 1426 1427 1425 1425 1424 1424 1424 1424 1423 1422 1420 1420 1418 1418 1417 1415 1415 1415 1415 1415 1415 1414 1414 1414 1413 1413 1412 1411 1411
1395 1399 1404 1410 1413 1417 1418 1421 1423 1425 1428 1429 1431 1431 1432 1432 1433 1433 1432 1431 1427 1420 1418 1415 1417 1420 1421 1421 1421 1420 1421 1421 1421 1419 1418 1416 1414 1413 1412 1411 1410 1411 1411 1411 1410 1410 1409 1409 1409 1409 1409 1408 1408 1407
1396 1400 1403 1407 1411 1415 1419 1419 1422 1423 1426 1429 1431 1430 1430 1429 1429 1430 1427 1422 1416 1410 1409 1410 1412 1415 1416 1417 1416 1416 1416 1416 1415 1414 1412 1410 1409 1407 1406 1405 1405 1404 1404 1405 1405 1404 1404 1404 1403 1404 1404 1404 1404 1404
1398 1399 1402 1404 1408 1415 1418 1418 1420 1423 1425 1427 1428 1429 1426 1426 1427 1427 1424 1412 1405 1406 1406 1408 1409 1411 1412 1411 1410 1411 1412 1412 1412 1411 1410 1408 1407 1405 1403 1402 1401 1400 1400 1399 1399 1399 1399 1399 1399 1399 1400 1400 1400 1400
1400 1403 1403 1404 1408 1412 1416 1419 1420 1422 1425 1423 1425 1424 1424 1425 1429 1429 1419 1404 1401 1404 1405 1406 1408 1409 1409 1409 1409 1410 1410 1410 1410 1409 1408 1406 1405 1404 1403 1401 1399 1397 1396 1395 1395 1395 1395 1395 1395 1395 1395 1395 1395 1395
1399 1403 1403 1403 1407 1408 1411 1419 1420 1421 1420 1423 1422 1421 1422 1426 1428 1418 1408 1401 1402 1404 1404 1405 1406 1407 1408 1409 1409 1409 1408 1408 1407 1406 1406 1404 1403 1401 1399 1398 1396 1396 1394 1393 1392 1391 1391 1391 1391 1390 1390 1390 1390 1390
1401 1402 1403 1403 1403 1404 1408 1410 1413 1414 1418 1416 1417 1420 1423 1425 1420 1405 1401 1401 1401 1403 1403 1404 1404 1405 1406 1407 1407 1406 1405 1404 1403 1402 1401 1400 1399 1398 1396 1394 1392 1392 1390 1389 1388 1388 1387 1386 1386 1386 1386 1386 1386 1385
1397 1398 1400 1402 1402 1403 1407 1410 1411 1411 1408 1408 1410 1416 1416 1412 1406 1401 1401 1402 1401 1401 1401 1401 1401 1401 1401 1402 1401 1401 1400 1398 1396 1395 1393 1393 1393 1392 1390 1389 1388 1386 1385 1384 1384 1383 1382 1382 1381 1381 1381 1381 1381 1380
1395 1396 1399 1401 1401 1402 1402 1402 1402 1402 1403 1403 1405 1405 1402 1400 1399 1400 1400 1400 1399 1398 1397 1397 1397 1396 1396 1395 1395 1394 1392 1391 1389 1386 1384 1381 1382 1384 1383 1382 1381 1380 1380 1379 1379 1378 1377 1376 1375 1375 1375 1375 1375 1374
1393 1395 1396 1397 1398 1398 1397 1398 1399 1399 1400 1401 1402 1400 1398 1397 1397 1397 1396 1395 1394 1394 1393 1392 1392 1391 1390 1389 1388 1387 1386 1383 1380 1379 1375 1374 1374 1374 1374 1374 1373 1374 1374 1374 1373 1372 1371 1370 1370 1370 1369 1369 1368 1368
1390 1392 1392 1393 1395 1396 1397 1398 1398 1399 1400 1399 1399 1398 1397 1395 1393 1392 1391 1391 1391 1391 1391 1390 1389 1387 1385 1383 1380 1377 1376 1376 1373 1371 1369 1368 1368 1367 1367 1366 1366 1367 1366 1366 1366 1366 1365 1365 1365 1364 1364 1364 1364 1363
1390 1390 1391 1395 1396 1397 1398 1398 1398 1398 1397 1396 1395 1395 1395 1394 1392 1390 1389 1388 1388 1388 1387 1385 1383 1380 1378 1374 1372 1369 1366 1365 1365 1363 1362 1360 1360 1359 1359 1359 1359 1359 1359 1359 1359 1359 1359 1359 1359 1359 1360 1360 1360 1359
1390 1390 1391 1392 1395 1396 1398 1398 1398 1397 1397 1395 1394 1394 1393 1393 1390 1388 1387 1386 1386 1385 1383 1380 1376 1372 1368 1365 1363 1361 1359 1357 1355 1354 1352 1351 1351 1350 1350 1350 1350 1350 1351 1351 1352 1352 1353 1353 1354 1355 1355 1356 1356 1355